Renton, WA
on Friday, February 1, 2013

Friday
Previous Day Next Day
Daily Summary
 ActualAverage (KSEA)Record (KSEA)
Temperature
Mean Temperature °F 43°F  
Max Temperature 50°F 49°F 63°F (1962)
Min Temperature 42°F 37°F 1°F (1950)
Degree Days
Heating Degree Days 19 22  
Month to date heating degree days 22  
Since 1 July heating degree days 2671  
Cooling Degree Days 0 0  
Month to date cooling degree days 0  
Year to date cooling degree days 0  
Moisture
Dew Point 44°F   
Average Humidity 96    
Maximum Humidity 100    
Minimum Humidity 77    
Precipitation
Precipitation 0.03 in 0.13 in 1.34 in (2000)
Month to date precipitation 0.13  
Year to date precipitation 5.70  
Snow
Snow 0.00 in in 5.80 in (1989)
Month to date snowfall  
Since 1 July snowfall  
Snow Depth in   
Wind
Wind Speed 3 mph   
Max Wind Speed 10 mph   
Max Gust Speed mph   
Visibility 6 miles   
Events Fog , Rain   

Key: T is trace of precipitation, MM is missing value
Source: NWS Daily Summary
Time(PST)TemperatureDew PointHumidity Pressure Visibility Wind DirectionWind SpeedGust SpeedPrecipitationEvents Conditions
12:53 AM 46.9°F 46.0°F 97% 30.36 in 4.0 miles SSE 3.5 mph - 0.00 in Rain Light Rain
1:04 AM 46.4°F 46.4°F 100% 30.34 in 2.5 miles Calm Calm - 0.01 in Rain Light Rain
1:24 AM 46.4°F 46.4°F 100% 30.35 in 1.5 miles Calm Calm - 0.02 in Rain Light Rain
1:31 AM 46.4°F 46.4°F 100% 30.35 in 3.0 miles Calm Calm - 0.02 in Rain Light Rain
1:41 AM 46.4°F 46.4°F 100% 30.35 in 2.5 miles Calm Calm - 0.03 in Rain Light Rain
1:45 AM 46.4°F 46.4°F 100% 30.35 in 1.8 miles Calm Calm - 0.03 in Rain Light Rain
1:49 AM 46.4°F 46.4°F 100% 30.36 in 2.0 miles Calm Calm - 0.03 in Rain Light Rain
1:53 AM 46.9°F 46.0°F 97% 30.37 in 4.0 miles Calm Calm - 0.03 in Rain Light Rain
1:56 AM 46.4°F 46.4°F 100% 30.36 in 5.0 miles Calm Calm - N/A   Overcast
2:53 AM 46.9°F 46.0°F 97% 30.38 in 5.0 miles SSE 3.5 mph - 0.00 in   Overcast
3:53 AM 46.0°F 46.0°F 100% 30.39 in 7.0 miles Calm Calm - N/A   Unknown
4:06 AM 46.4°F 46.4°F 100% 30.37 in 8.0 miles Calm Calm - N/A   Overcast
4:53 AM 46.0°F 45.0°F 96% 30.39 in 8.0 miles Calm Calm - N/A   Overcast
5:41 AM 44.6°F 44.6°F 100% 30.38 in 7.0 miles South 3.5 mph - N/A   Mostly Cloudy
5:53 AM 44.1°F 44.1°F 100% 30.40 in 6.0 miles Calm Calm - N/A   Mostly Cloudy
6:53 AM 44.1°F 44.1°F 100% 30.40 in 5.0 miles Calm Calm - N/A   Scattered Clouds
7:53 AM 43.0°F 43.0°F 100% 30.39 in 5.0 miles Calm Calm - N/A   Overcast
8:00 AM 42.8°F 42.8°F 100% 30.38 in 2.0 miles NW 3.5 mph - N/A   Overcast
8:02 AM 42.8°F 42.8°F 100% 30.37 in 0.8 miles Calm Calm - N/A   Overcast
8:09 AM 44.6°F 44.6°F 100% 30.37 in 0.8 miles NW 4.6 mph - N/A   Overcast
8:53 AM 44.1°F 44.1°F 100% 30.39 in 0.2 miles NW 5.8 mph - N/A Fog Fog
9:53 AM 44.6°F 44.6°F 100% 30.39 in 2.0 miles NW 3.5 mph - N/A   Overcast
10:22 AM 44.6°F 44.6°F 100% 30.40 in 7.0 miles NNW 3.5 mph - N/A   Overcast
10:53 AM 46.0°F 45.0°F 96% 30.42 in 8.0 miles North 3.5 mph - N/A   Overcast
11:00 AM 46.4°F 44.6°F 93% 30.41 in 10.0 miles NNW 4.6 mph - N/A   Overcast
11:38 AM 46.4°F 44.6°F 93% 30.41 in 10.0 miles NNW 4.6 mph - N/A   Overcast
11:53 AM 46.9°F 45.0°F 93% 30.42 in 10.0 miles WNW 4.6 mph - N/A   Overcast
12:53 PM 48.2°F 44.6°F 87% 30.40 in 10.0 miles NW 5.8 mph - N/A   Scattered Clouds
1:53 PM 48.9°F 44.1°F 83% 30.40 in 10.0 miles NW 6.9 mph - N/A   Clear
2:53 PM 50.0°F 44.1°F 80% 30.39 in 10.0 miles NW 5.8 mph - N/A   Clear
3:53 PM 50.0°F 43.0°F 77% 30.38 in 10.0 miles NW 6.9 mph - N/A   Clear
4:53 PM 46.9°F 44.1°F 90% 30.38 in 10.0 miles NNW 5.8 mph - N/A   Clear
5:53 PM 45.0°F 43.0°F 93% 30.38 in 10.0 miles NW 5.8 mph - N/A   Clear
6:26 PM 46.4°F 42.8°F 87% 30.37 in 10.0 miles NW 9.2 mph - N/A   Mostly Cloudy
6:53 PM 46.0°F 43.0°F 89% 30.39 in 10.0 miles NW 9.2 mph - N/A   Overcast
7:53 PM 46.0°F 43.0°F 89% 30.40 in 10.0 miles NW 8.1 mph - N/A   Overcast
8:38 PM 44.6°F 42.8°F 93% 30.38 in 10.0 miles NNW 10.4 mph - N/A   Scattered Clouds
8:53 PM 45.0°F 42.1°F 90% 30.40 in 10.0 miles NW 10.4 mph - N/A   Clear
9:53 PM 44.1°F 42.1°F 93% 30.40 in 10.0 miles NNW 9.2 mph - N/A   Clear
10:53 PM 43.0°F 42.1°F 97% 30.39 in 8.0 miles NNW 4.6 mph - N/A   Clear
11:36 PM 42.8°F 42.8°F 100% 30.38 in 6.0 miles NW 8.1 mph - N/A   Scattered Clouds
11:45 PM 42.8°F 42.8°F 100% 30.38 in 6.0 miles NW 8.1 mph - N/A   Mostly Cloudy
11:53 PM 43.0°F 42.1°F 97% 30.39 in 6.0 miles NW 10.4 mph - N/A   Mostly Cloudy
Moon Phase
Feb. 01 Feb. 03 Feb. 10 Feb. 17 Feb. 25
Sunrise:07:34 AM (PST) Moon Rise:11:55 PM (PST)2/1
Sunset:05:11 PM (PST) Moon Set:09:42 AM (PST)2/1

Copyright © 2014 The Weather Underground, Inc.